{"data":{"norad_id":64047,"epoch":"2026-09-20T14:17:24.045216Z","epoch_age_seconds":135296,"freshness":"FRESH","line1":"1 64047U 25102AB  26263.59541719  .00009798  00000+0  34476-3 0  9990","line2":"2 64047  70.0014 340.7735 0003341 268.9948  91.0845 15.29587541 75085","mean_motion":15.29587541,"eccentricity":0.0003341,"inclination_deg":70.0014,"raan_deg":340.7735,"arg_perigee_deg":268.9948,"mean_anomaly_deg":91.0845,"bstar":0.00034476,"rev_number":7508,"period_min":94.143026234286,"perigee_km":474.75405565913,"apogee_km":479.33468785174,"semimajor_km":6855.1813717554,"source":"CELESTRAK","updated_at":"2026-09-21T09:00:35.191288Z"}}